[[{"header":{"parameterUnit":"m.s-1","parameterCategory":1,"la1":30.2991,"la2":30.254,"lo1":-89.0895,"lo2":-89.0444,"dy":0.0017,"dx":0.0017,"nx":28,"ny":28,"refTime":"2023-08-20T21:00:00:Z","depth":0,"parameterNumber":2,"parameterNumberName":"U-component_of_WINDS"},"data":[0,0,0,0,0,0,0,0,0,0,0,0,0,0,0,0,0,0,0,0,0,0,0,0,0,0,0,0,0,0,0,0,0,0,0,0,0,0,0,0,0,0,0,0,0,0,0,0,0,0,0,0,0,0,0,0,0,0,-5.0465,-5.0466,0,-5.048,-5.048,-5.048,-5.0278,-5.0273,-5.0267,-5.0262,-5.0281,-5.0286,-5.0292,0,0,0,0,0,0,0,0,0,0,0,0,0,-5.0267,-5.0272,-5.0465,-5.0466,-5.0466,-5.048,-5.048,-5.048,-5.0279,-5.0273,-5.0266,-5.026,-5.0279,-5.0285,-5.0292,0,0,0,0,0,0,0,0,0,0,0,0,0,-5.0325,-5.0273,-5.0465,-5.0367,-5.0358,-5.048,-5.048,-5.048,-5.0281,-5.0272,-5.0264,-5.0257,-5.0277,-5.0285,-5.0293,-5.051,0,0,-5.0319,-5.0322,0,0,0,0,0,0,0,0,-5.0322,-5.0332,-5.0381,-5.0374,-5.0365,-5.0369,-5.0416,-5.049,-5.0283,-5.0311,-5.0262,-5.0252,-5.0317,-5.0321,-5.0342,-5.0511,-5.0512,-5.032,-5.0325,-5.0328,-5.0331,0,0,0,0,0,0,0,-5.0318,-5.033,-5.0471,-5.0382,-5.0372,-5.0323,-5.0322,-5.0429,-5.036,-5.0307,-5.0293,-5.0297,-5.0311,-5.0335,-5.0341,-5.0512,-5.0319,-5.0327,-5.0332,-5.0335,-5.0859,-5.0868,0,0,0,0,0,0,-5.0327,-5.0328,-5.0471,-5.0471,-5.0322,-5.0334,-5.0332,-5.0376,-5.0358,-5.0347,-5.0304,-5.0288,-5.0324,-5.0332,-5.0341,-5.0594,-5.0328,-5.0336,-5.0341,-5.0851,-5.0861,-5.0871,0,0,0,0,0,0,-5.0323,-5.0341,-5.047,-5.0396,-5.0409,-5.0346,-5.0396,-5.0381,-5.0404,-5.0355,-5.0342,-5.0341,-5.0318,-5.0329,-5.0469,-5.0592,-5.034,-5.0348,-5.084,-5.0854,-5.0866,-5.1102,0,0,0,0,0,0,-5.0318,-5.0341,-5.0423,-5.0399,-5.0413,-5.0598,-5.0404,-5.0387,-5.0419,-5.0397,-5.0387,-5.0377,-5.0313,-5.0458,-5.0478,-5.0599,-5.0354,-5.0829,-5.0846,-5.0862,-5.1083,-5.1122,-5.1155,0,0,0,0,0,-5.0312,-5.0489,-5.0428,-5.0446,-5.0513,-5.0605,-5.0613,-5.0534,-5.043,-5.0511,-5.048,-5.0378,-5.0575,-5.0474,-5.0494,-5.062,-5.0821,-5.0841,-5.0861,-5.1067,-5.1115,-5.1154,0,0,0,0,0,0,-5.053,-5.0484,-5.0416,-5.059,-5.0603,-5.0571,-5.0671,-5.0587,-5.063,-5.0609,-5.0509,-5.0509,-5.0666,-5.0656,-5.0544,-5.0829,-5.068,-5.0705,-5.083,-5.0874,-5.091,-5.0909,-5.0361,0,0,0,0,0,-5.0598,-5.0676,-5.0632,-5.0791,-5.08,-5.0736,-5.0773,-5.071,-5.072,-5.0725,-5.0703,-5.0718,-5.0782,-5.0828,-5.0885,-5.1081,-5.1076,-5.1177,-5.1213,-5.1243,-5.1266,-5.137,-5.1415,-5.0936,-5.0936,-5.0936,0,0,-5.074,-5.0725,-5.078,-5.0834,-5.0836,-5.092,-5.0741,-5.0837,-5.0898,-5.0739,-5.087,-5.0855,-5.0864,-5.1034,-5.1107,-5.1031,-5.1397,-5.1269,-5.1293,-5.13,-5.1395,-5.144,-5.1481,-5.095,-5.0948,-5.0945,0,0,-5.1042,-5.1038,-5.1169,-5.1175,-5.1181,-5.1136,-5.1169,-5.1149,-5.1133,-5.1262,-5.1145,-5.1216,-5.133,-5.1342,-5.1363,-5.1669,-5.1577,-5.169,-5.1879,-5.1981,-5.2018,-5.2051,-5.2161,-5.2202,-5.1713,-5.1714,-5.1714,0,-5.1218,-5.1338,-5.1248,-5.1352,-5.1379,-5.1238,-5.1371,-5.1381,-5.1406,-5.1429,-5.1343,-5.1483,-5.1479,-5.1649,-5.1724,-5.1745,-5.1779,-5.1691,-5.202,-5.2052,-5.2082,-5.2185,-5.2227,-5.1728,-5.1726,-5.1725,-5.1723,0,-5.1555,-5.164,-5.1746,-5.1772,-5.1811,-5.1929,-5.1858,-5.1909,-5.1843,-5.1809,-5.1942,-5.1933,-5.1986,-5.2021,-5.1959,-5.2183,-5.2136,-5.2037,-5.1884,-5.2143,-5.2238,-5.2277,-5.1748,-5.1743,-5.1738,-5.1735,0,0,-5.1995,-5.1969,-5.201,-5.202,-5.2016,-5.208,-5.2192,-5.2242,-5.2288,-5.231,-5.2402,-5.2502,-5.241,-5.2434,-5.2371,-5.2461,-5.2705,-5.235,-5.2349,-5.2417,-5.2952,-5.3028,-5.3075,-5.2643,-5.265,-5.2656,-5.2952,0,-5.2288,-5.2477,-5.2399,-5.2595,-5.2673,-5.254,-5.2637,-5.2646,-5.2617,-5.2679,-5.2646,-5.2719,-5.2592,-5.2605,-5.2688,-5.2658,-5.2811,-5.2635,-5.2729,-5.2734,-5.2732,-5.3125,-5.3204,-5.3484,-5.2989,-5.2995,-5.2999,0,-5.2656,-5.2692,-5.2896,-5.2878,-5.2907,-5.2997,-5.3036,-5.3097,-5.3105,-5.3077,-5.3104,-5.3021,-5.3131,-5.2979,-5.3129,-5.3011,-5.3045,-5.3036,-5.3045,-5.3051,-5.2883,-5.3143,-5.3571,-5.3614,-5.3057,-5.3053,-5.3049,0,-5.2958,-5.3057,-5.3191,-5.3204,-5.3186,-5.3252,-5.3248,-5.3247,-5.3282,-5.3317,-5.3339,-5.3388,-5.3415,-5.3455,-5.3388,-5.3284,-5.3549,-5.339,-5.353,-5.3532,-5.3592,-5.3589,-5.4033,-5.3613,-5.3613,-5.3612,-5.3611,0,-5.3294,-5.3424,-5.3326,-5.341,-5.3552,-5.3461,-5.3605,-5.3586,-5.3586,-5.3664,-5.3552,-5.3628,-5.3534,-5.3602,-5.355,-5.3683,-5.3696,-5.3677,-5.3662,-5.3688,-5.3691,-5.3709,-5.3689,-5.3623,-5.3621,-5.3618,-5.3617,0,-5.3655,-5.3595,-5.3733,-5.3704,-5.37,-5.3806,-5.3782,-5.3858,-5.382,-5.392,-5.3938,-5.388,-5.3953,-5.389,-5.3961,-5.3927,-5.4103,-5.406,-5.4101,-5.4089,-5.4232,-5.422,-5.4704,-5.4763,-5.4305,-5.431,-5.4314,0,-5.3874,-5.3971,-5.3952,-5.3996,-5.3998,-5.407,-5.4105,-5.402,-5.4061,-5.4077,-5.4152,-5.4215,-5.4261,-5.4385,-5.435,-5.4404,-5.4361,-5.4527,-5.4369,-5.4392,-5.4365,-5.436,-5.437,-5.456,-5.4565,-5.457,-5.4573,0,-5.4269,-5.4234,-5.4289,-5.4334,-5.4379,-5.441,-5.4432,-5.4475,-5.4388,-5.444,-5.4513,-5.4549,-5.4621,-5.4686,-5.4728,-5.4724,-5.4636,-5.4623,-5.4658,-5.4686,-5.4706,-5.4698,-5.4189,-5.4613,-5.4609,-5.4606,-5.4604,-5.4602,-5.4566,-5.4646,-5.4645,-5.471,-5.4717,-5.4741,-5.4811,-5.4782,-5.4841,-5.4892,-5.4838,-5.4928,-5.4932,-5.498,-5.4987,-5.5056,-5.4987,-5.5038,-5.5051,-5.5065,-5.5086,-5.4694,-5.5064,-5.5063,-5.5061,-5.506,-5.506,0,-5.4956,-5.4949,-5.5009,-5.5043,-5.5095,-5.5005,-5.5025,-5.5074,-5.5153,-5.5165,-5.5212,-5.5297,-5.5359,-5.5329,-5.5383,-5.5445,-5.5405,-5.5462,-5.5457,-5.5458,-5.5144,-5.5109,-5.5493,-5.5493,-5.5493,-5.5492,-5.5492,-5.5492,-5.5165,-5.5295,-5.5261,-5.5394,-5.5386,-5.5471,-5.5491,-5.5512,-5.5521,-5.562,-5.567,-5.5649,-5.5645,-5.5698,-5.5752,-5.5741,-5.5767,-5.5839,-5.5814,-5.5522,-5.548,-5.5439,-5.5405,-5.5845,-5.5845,-5.6121,-5.6124,-5.6126]},{"header":{"parameterUnit":"m.s-1","parameterCategory":1,"la1":30.2991,"la2":30.254,"lo1":-89.0895,"lo2":-89.0444,"dy":0.0017,"dx":0.0017,"nx":28,"ny":28,"refTime":"2023-08-20T21:00:00:Z","depth":0,"parameterNumber":3,"parameterNumberName":"V-component_of_WINDS"},"data":[0,0,0,0,0,0,0,0,0,0,0,0,0,0,0,0,0,0,0,0,0,0,0,0,0,0,0,0,0,0,0,0,0,0,0,0,0,0,0,0,0,0,0,0,0,0,0,0,0,0,0,0,0,0,0,0,0,0,-1.0458,-1.0457,0,-1.044,-1.0439,-1.0439,-1.045,-1.045,-1.0451,-1.0451,-1.0431,-1.043,-1.0429,0,0,0,0,0,0,0,0,0,0,0,0,0,-1.0498,-1.0497,-1.0458,-1.0457,-1.0457,-1.044,-1.0439,-1.0439,-1.045,-1.045,-1.0451,-1.0452,-1.0431,-1.043,-1.0429,0,0,0,0,0,0,0,0,0,0,0,0,0,-1.048,-1.0497,-1.0458,-1.046,-1.046,-1.044,-1.0439,-1.0439,-1.045,-1.045,-1.0451,-1.0452,-1.0431,-1.043,-1.0428,-1.0403,0,0,-1.0424,-1.0423,0,0,0,0,0,0,0,0,-1.0481,-1.0479,-1.046,-1.046,-1.046,-1.0448,-1.0446,-1.0427,-1.0449,-1.0454,-1.0451,-1.0452,-1.0436,-1.0434,-1.0429,-1.0402,-1.0401,-1.0424,-1.0423,-1.0422,-1.0422,0,0,0,0,0,0,0,-1.0483,-1.048,-1.045,-1.046,-1.046,-1.0461,-1.046,-1.0443,-1.044,-1.0453,-1.0454,-1.0452,-1.0436,-1.043,-1.0428,-1.0401,-1.0424,-1.0422,-1.0421,-1.0421,-1.0351,-1.035,0,0,0,0,0,0,-1.0484,-1.0481,-1.0451,-1.045,-1.0473,-1.046,-1.0458,-1.0451,-1.0441,-1.044,-1.0451,-1.0452,-1.0432,-1.043,-1.0428,-1.0396,-1.0422,-1.0421,-1.042,-1.0352,-1.0351,-1.035,0,0,0,0,0,0,-1.0485,-1.0481,-1.0452,-1.0465,-1.0462,-1.0459,-1.045,-1.045,-1.0445,-1.0439,-1.0439,-1.0446,-1.0433,-1.043,-1.0409,-1.0395,-1.042,-1.0418,-1.0353,-1.0351,-1.035,-1.0333,0,0,0,0,0,0,-1.0486,-1.0482,-1.0473,-1.0465,-1.0461,-1.0434,-1.045,-1.0449,-1.0442,-1.0444,-1.0434,-1.0433,-1.0433,-1.0411,-1.0407,-1.0394,-1.0417,-1.0354,-1.0352,-1.0351,-1.0335,-1.0331,-1.0328,0,0,0,0,0,-1.0487,-1.0469,-1.0472,-1.0469,-1.045,-1.0434,-1.0431,-1.0432,-1.0441,-1.0431,-1.0428,-1.0433,-1.0398,-1.0409,-1.0405,-1.039,-1.0355,-1.0353,-1.0351,-1.0336,-1.0332,-1.0328,0,0,0,0,0,0,-1.0474,-1.0468,-1.0472,-1.045,-1.0442,-1.0435,-1.0424,-1.0428,-1.0417,-1.0419,-1.042,-1.0417,-1.0395,-1.0391,-1.0404,-1.0364,-1.0377,-1.0374,-1.0368,-1.0364,-1.0361,-1.0361,-1.0416,0,0,0,0,0,-1.0469,-1.0457,-1.0452,-1.0433,-1.0429,-1.0427,-1.042,-1.0421,-1.0413,-1.0409,-1.0404,-1.0395,-1.0381,-1.0373,-1.036,-1.0335,-1.0331,-1.0322,-1.0319,-1.0316,-1.0313,-1.0297,-1.0293,-1.0343,-1.0343,-1.0343,0,0,-1.0458,-1.0453,-1.0445,-1.043,-1.0425,-1.0411,-1.0424,-1.0409,-1.0399,-1.0407,-1.0387,-1.0382,-1.0372,-1.0348,-1.0338,-1.0344,-1.0299,-1.0314,-1.0312,-1.031,-1.0295,-1.029,-1.0286,-1.0341,-1.0342,-1.0342,0,0,-1.043,-1.0426,-1.0409,-1.0403,-1.0394,-1.0392,-1.0388,-1.038,-1.0378,-1.0357,-1.0363,-1.035,-1.0327,-1.0319,-1.0312,-1.0279,-1.0283,-1.0275,-1.0257,-1.0242,-1.0238,-1.0234,-1.0221,-1.0216,-1.0272,-1.0272,-1.0272,0,-1.0417,-1.0398,-1.04,-1.0384,-1.0377,-1.0384,-1.0366,-1.0359,-1.0346,-1.034,-1.0348,-1.0318,-1.0312,-1.0285,-1.0277,-1.0272,-1.0266,-1.0276,-1.0238,-1.0235,-1.0232,-1.0219,-1.0214,-1.0271,-1.0271,-1.0271,-1.0272,0,-1.0381,-1.0367,-1.0354,-1.0342,-1.0333,-1.0316,-1.0315,-1.0305,-1.0307,-1.0304,-1.0282,-1.0275,-1.026,-1.0254,-1.0256,-1.0227,-1.0231,-1.0239,-1.0252,-1.0226,-1.0213,-1.0209,-1.027,-1.027,-1.027,-1.0271,0,0,-1.0345,-1.0333,-1.0328,-1.0321,-1.0311,-1.03,-1.0283,-1.0269,-1.026,-1.025,-1.0235,-1.0215,-1.0221,-1.0213,-1.0213,-1.02,-1.0172,-1.0209,-1.0208,-1.02,-1.0137,-1.0131,-1.0125,-1.0175,-1.0174,-1.0174,-1.0137,0,-1.0315,-1.0286,-1.0287,-1.0259,-1.0245,-1.0251,-1.0236,-1.0227,-1.0224,-1.021,-1.0206,-1.0191,-1.0202,-1.0196,-1.0183,-1.0178,-1.0159,-1.0181,-1.0159,-1.0158,-1.016,-1.0119,-1.0113,-1.0079,-1.0133,-1.0132,-1.0132,0,-1.0277,-1.0266,-1.0237,-1.0227,-1.0221,-1.0208,-1.0193,-1.0181,-1.0171,-1.0169,-1.0159,-1.0162,-1.0143,-1.0157,-1.0129,-1.0144,-1.0135,-1.0131,-1.013,-1.0126,-1.0142,-1.0113,-1.0069,-1.0063,-1.0125,-1.0125,-1.0126,0,-1.0251,-1.0229,-1.0208,-1.0203,-1.0191,-1.0181,-1.0176,-1.0166,-1.0157,-1.0145,-1.0138,-1.0124,-1.0115,-1.0103,-1.0101,-1.0112,-1.0072,-1.0087,-1.0069,-1.0069,-1.0059,-1.006,-1.0011,-1.0056,-1.0056,-1.0056,-1.0056,0,-1.0217,-1.0198,-1.0196,-1.0183,-1.0162,-1.0163,-1.0141,-1.0137,-1.0128,-1.0113,-1.0117,-1.0103,-1.0101,-1.0086,-1.0084,-1.006,-1.0057,-1.0054,-1.0053,-1.0053,-1.0053,-1.0046,-1.0047,-1.0055,-1.0055,-1.0055,-1.0056,0,-1.0184,-1.0182,-1.016,-1.0151,-1.0148,-1.0132,-1.0124,-1.0111,-1.0108,-1.0089,-1.0084,-1.0079,-1.0061,-1.0057,-1.0036,-1.0035,-1.0006,-1.0008,-1.0009,-1.0009,-0.9991,-0.9992,-0.9934,-0.9926,-0.9978,-0.9978,-0.9977,0,-1.0162,-1.0148,-1.0137,-1.0128,-1.0122,-1.0107,-1.0097,-1.0097,-1.0087,-1.0073,-1.006,-1.0043,-1.0029,-1.0,-0.9993,-0.9976,-0.9978,-0.9959,-0.9975,-0.9974,-0.9975,-0.9975,-0.9973,-0.9955,-0.9954,-0.9954,-0.9954,0,-1.0122,-1.0122,-1.0108,-1.0094,-1.0083,-1.0071,-1.006,-1.0052,-1.005,-1.0038,-1.002,-1.0009,-0.9987,-0.9969,-0.9952,-0.9945,-0.9948,-0.9949,-0.9943,-0.9942,-0.9942,-0.994,-0.9999,-0.995,-0.995,-0.995,-0.9951,-0.9951,-1.0093,-1.008,-1.007,-1.0054,-1.0046,-1.0035,-1.0022,-1.0017,-1.0002,-0.9985,-0.9985,-0.9964,-0.9952,-0.993,-0.9922,-0.9905,-0.9911,-0.9903,-0.9901,-0.9899,-0.9896,-0.9946,-0.9902,-0.9902,-0.9902,-0.9902,-0.9902,0,-1.0052,-1.0045,-1.0031,-1.0016,-1.0003,-1.0008,-0.9996,-0.9984,-0.9966,-0.9955,-0.9941,-0.9919,-0.9901,-0.9893,-0.9875,-0.9863,-0.9863,-0.9858,-0.9858,-0.9856,-0.9893,-0.9899,-0.9857,-0.9857,-0.9857,-0.9857,-0.9857,-0.9857,-1.0029,-1.0006,-1.0004,-0.9977,-0.9971,-0.9951,-0.9943,-0.9933,-0.9924,-0.9899,-0.9884,-0.9879,-0.9869,-0.9849,-0.9832,-0.983,-0.9823,-0.9816,-0.9814,-0.9849,-0.9853,-0.9858,-0.9863,-0.9814,-0.9814,-0.9778,-0.9777,-0.9777]}]]